Content
SEND FEEDBACK

Daily
Averages
Monthly
Summary
United States of America

CHESTERFIELD, MISSOURI


Home > North America > United States > Missouri
Elevation: 170 meters     Latitude: 38 41N     Longitude: 090 31W

WEATHER
 
SELECT A DAY
Number of Records: 207,577;   Date Range: 1/1/95 - 11/27/14
 
SHARE

PRINT THIS DATA

[ ← Previous Day ]
WEATHER ALMANAC - 3 JULY, 2013
[ Next Day → ]
[ °F ]   °C
Weather ElementAverageHighLow
Temperature23.1 °C27.8 °C (3:51 pm)17.8 °C (3:51 am)
Dewpoint14.9 °C16.1 °C (1:51 am)13.3 °C (11:51 am)
Humidity61.9 %90 % (4:51 am)43 % (1:51 pm)
Barometer1017.3 hPa1018.6 hPa (8:51 am)1015.9 hPa (5:51 pm)
Wind Speed6.3 km/h14.8 km/h (7:51 pm)
Weather ElementAverage
Visibility15.8 km
Wind DirectionESE (124.8 °)

Weather ElementTotal
Precipitation---
Cooling Degree Days4.4 (Base 18.3)
Growing Degree Days12.8 (Base 10)
Averaged from 23 records on 3 July, 2013
WEATHER CONDITIONS BREAKOUT
WIND DIRECTION BREAKOUT
WEATHER BY HOUR - 3 JULY, 2013
[ °F ]   °C
Local TimeTemperatureDewpointHumidityBarometerVisibilityWind DirectionWind SpeedGust SpeedPrecipitationEventsConditions
1:51 AM18.3 °C16.1 °C87 %1016.9 hPa14.5 kmCalmMostly Cloudy
2:51 AM18.9 °C15.6 °C81 %1016.6 hPa14.5 kmCalmMostly Cloudy
3:51 AM17.8 °C15.6 °C87 %1016.9 hPa14.5 kmWest (280°)7.4 km/hMostly Cloudy
4:51 AM17.8 °C16.1 °C90 %1017.3 hPa14.5 kmWest (270°)7.4 km/hMostly Cloudy
5:51 AM17.8 °C15.6 °C87 %1017.6 hPa16.1 kmWest (260°)5.6 km/hMostly Cloudy
6:51 AM18.3 °C15 °C81 %1017.9 hPa16.1 kmWSW (240°)5.6 km/h0 mmRainLight Rain
7:51 AM20 °C15.6 °C76 %1017.9 hPa16.1 kmWest (280°)5.6 km/h0 mmMostly Cloudy
8:51 AM21.7 °C15 °C66 %1018.6 hPa16.1 kmCalmMostly Cloudy
9:51 AM22.2 °C15.6 °C66 %1018.6 hPa16.1 kmCalmScattered Clouds
10:51 AM25 °C13.9 °C50 %1018.3 hPa16.1 kmCalmScattered Clouds
11:51 AM26.1 °C13.3 °C45 %1017.9 hPa16.1 kmCalmScattered Clouds
12:51 PM26.1 °C14.4 °C48 %1017.9 hPa16.1 kmCalmScattered Clouds
1:51 PM26.7 °C13.3 °C43 %1017.3 hPa16.1 kmCalmMostly Cloudy
2:51 PM26.1 °C13.9 °C47 %1017.3 hPa16.1 kmVariable5.6 km/hMostly Cloudy
3:51 PM27.8 °C15 °C45 %1016.9 hPa16.1 kmSouth (170°)7.4 km/hMostly Cloudy
4:51 PM26.1 °C14.4 °C48 %1016.6 hPa16.1 kmSSE (160°)13 km/hMostly Cloudy
5:51 PM26.7 °C14.4 °C47 %1015.9 hPa16.1 kmSSW (200°)7.4 km/hScattered Clouds
6:51 PM26.7 °C14.4 °C47 %1015.9 hPa16.1 kmSSW (200°)11.1 km/hScattered Clouds
7:51 PM26.1 °C14.4 °C48 %1016.3 hPa16.1 kmSSE (160°)14.8 km/hScattered Clouds
8:51 PM25 °C15 °C54 %1016.6 hPa16.1 kmSSE (160°)13 km/hPartly Cloudy
9:51 PM23.9 °C15 °C57 %1017.3 hPa16.1 kmSSE (160°)13 km/hClear
10:51 PM23.3 °C15.6 °C62 %1017.3 hPa16.1 kmSSE (160°)13 km/hPartly Cloudy
11:51 PM22.8 °C15 °C61 %1017.6 hPa16.1 kmSouth (170°)14.8 km/hClear
Hourly data recorded from KSTL, located 0 kilometers away from Chesterfield, Missouri







STORIES FROM OUR PARTNERS